Flag for U.S.A. Weather past 2 weeks in St. Croix Falls, Wisconsin, U.S.A.

Now
63 °F

Scattered clouds.


Feels Like: 63 °F
Forecast: 48 / 60 °F
Wind: 12 mph from Northwest

Location: L O Simenstad Municipal Airport

Current Time: Sep 21, 2014 at 3:40:41 PM

Latest Report: Sep 21, 2014 at 3:15 PM


Visibility: 10 mi

Pressure: 30.16 "Hg

Humidity: 54%

Dew point: 46 °F

Location of St. Croix FallsLocation

Historic Weather in St. Croix Falls — Graph

°F

St. Croix Falls temperature yesterday

Maximum temperature yesterday: 74 °F (at 2:55 PM)
Minimum temperature yesterday: 55 °F (at 10:35 PM)
Average temperature yesterday: 65 °F

Past Weeks' High & Low Weather Summary

 TemperatureHumidityPressure
High76 °F (Sep 7, 3:55 PM)100% (Sep 6, 9:55 PM)30.46 "Hg (Sep 6, 9:55 PM)
Low33 °F (Sep 13, 6:15 AM)33% (Sep 7, 4:55 PM)29.67 "Hg (Sep 19, 11:15 PM)
Average56 °F81%30.08 "Hg
* Reported Sep 6 2:15 PM — Sep 21 2:15 PM, St. Croix Falls, Weather by CustomWeather, © 2014

Note: Actual official high and low records may vary slightly from our data, if they occured in-between our weather recording intervals... More about our weather records

Advertising

St. Croix Falls weather history for previous 24 hours

 ConditionsComfort  
Time TempWeatherWind HumidityBarometerVisibility
2:15 PM
Sep 21
62 °FPartly sunny.15 mph56%30.15 "Hg10 mi
1:15 PM62 °FScattered clouds.12 mph60%30.15 "Hg10 mi
12:55 PM61 °FScattered clouds.16 mph61%30.15 "Hg10 mi
12:35 PM60 °FBroken clouds.13 mph65%30.15 "Hg10 mi
12:15 PM61 °FBroken clouds.15 mph61%30.15 "Hg10 mi
11:55 AM60 °FBroken clouds.13 mph63%30.14 "Hg10 mi
11:35 AM59 °FMore clouds than sun.14 mph67%30.14 "Hg10 mi
11:15 AM59 °FCloudy.12 mph71%30.14 "Hg10 mi
10:55 AM57 °FMostly cloudy.8 mph73%30.13 "Hg10 mi
10:35 AM57 °FPartly sunny.12 mph76%30.12 "Hg10 mi
10:15 AM56 °FMostly cloudy.9 mph85%30.12 "Hg10 mi
9:55 AM56 °FPartly sunny.8 mph87%30.11 "Hg10 mi
9:15 AM53 °FOvercast.8 mph97%30.10 "Hg10 mi
8:55 AM53 °FOvercast.7 mph97%30.09 "Hg10 mi
8:35 AM52 °FOvercast.7 mph99%30.07 "Hg10 mi
8:15 AM52 °FOvercast.12 mph99%30.06 "Hg10 mi
7:55 AM52 °FOvercast.10 mph100%30.05 "Hg10 mi
7:35 AM52 °FOvercast.8 mph100%30.04 "Hg7 mi
7:15 AM52 °FOvercast.10 mph100%30.02 "Hg10 mi
6:55 AM52 °FOvercast.9 mph100%30.01 "Hg10 mi
6:35 AM52 °FDrizzle. Overcast.9 mph100%29.99 "Hg10 mi
6:15 AM52 °FRain. Mostly cloudy.10 mph100%29.98 "Hg10 mi
5:55 AM52 °FRain. Overcast.9 mph100%29.96 "Hg10 mi
5:35 AM52 °FLight rain. Overcast.13 mph100%29.95 "Hg10 mi
5:15 AM52 °FRain. Mostly cloudy.9 mph100%29.94 "Hg10 mi
4:55 AM52 °FRain. Overcast.12 mph99%29.93 "Hg10 mi
4:15 AM54 °FOvercast.9 mph82%29.91 "Hg10 mi
3:55 AM53 °FOvercast.9 mph83%29.90 "Hg10 mi
3:35 AM54 °FOvercast.10 mph81%29.89 "Hg10 mi
3:15 AM54 °FOvercast.10 mph81%29.88 "Hg10 mi
2:55 AM54 °FPassing clouds.8 mph81%29.87 "Hg10 mi
2:35 AM53 °FClear.10 mph82%29.87 "Hg10 mi
2:15 AM54 °FPartly cloudy.12 mph79%29.86 "Hg10 mi
1:55 AM54 °FPassing clouds.12 mph78%29.86 "Hg10 mi
1:35 AM54 °FPassing clouds.13 mph77%29.85 "Hg10 mi
1:15 AM54 °FClear.12 mph76%29.84 "Hg10 mi
12:55 AM56 °FPassing clouds.16 mph77%29.84 "Hg10 mi
12:35 AM56 °FPassing clouds.16 mph78%29.83 "Hg10 mi
12:15 AM56 °FPassing clouds.16 mph78%29.83 "Hg10 mi
11:55 PM
Sep 20
55 °FClear.13 mph83%29.82 "Hg10 mi
11:35 PM55 °FClear.12 mph85%29.83 "Hg10 mi
11:15 PM55 °FClear.12 mph86%29.83 "Hg10 mi
10:55 PM55 °FClear.10 mph89%29.83 "Hg10 mi
10:35 PM55 °FClear.10 mph91%29.83 "Hg10 mi
10:15 PM56 °FClear.8 mph87%29.83 "Hg10 mi
9:55 PM56 °FClear.8 mph91%29.83 "Hg10 mi
9:35 PM57 °FClear.8 mph90%29.83 "Hg10 mi
9:15 PM57 °FClear.10 mph92%29.83 "Hg10 mi
8:55 PM57 °FPassing clouds.10 mph94%29.83 "Hg10 mi
8:35 PM57 °FPassing clouds.8 mph96%29.82 "Hg10 mi
8:15 PM58 °FClear.9 mph97%29.81 "Hg10 mi
7:55 PM58 °FSunny.9 mph97%29.81 "Hg10 mi
7:35 PM58 °FSunny.9 mph99%29.80 "Hg10 mi
7:15 PM60 °FScattered clouds.8 mph96%29.79 "Hg10 mi
6:55 PM60 °FLight rain. Partly sunny.6 mph98%29.77 "Hg10 mi
6:35 PM60 °FLight rain. Cloudy.8 mph94%29.77 "Hg10 mi
6:15 PM64 °FHeavy rain. More clouds than sun.8 mph82%29.79 "Hg10 mi
5:15 PM70 °FBroken clouds.5 mph62%29.76 "Hg10 mi
4:55 PM71 °FSunny.6 mph59%29.76 "Hg10 mi
4:35 PM72 °FScattered clouds.8 mph56%29.76 "Hg10 mi
3:15 PM72 °FScattered clouds.13 mph55%29.79 "Hg10 mi
Weather by CustomWeather, © 2014

See weather overviewHow to use our weather pages